www.pogodaiklimat.ru

Погода и климат >> Архив погоды >> Афганистан >> Кандагар


ПОГОДА в Кандагаре

  • Прогноз погоды в Кандагаре
  • Монитор погоды в Кандагаре

АРХИВ ПОГОДЫ в Кандагаре

Время (UTC), дата Ветер
(напр.,м/с)
 
Видим.   Явления Облачность Т
(С)
Тd
(С)
f
(%)
Тe
(С)
Тes
(С)
Комфортность P
(гПа)
Po
(гПа)
Тmin
(С)
Tmax
(С)
R
(мм)
R24
(мм)
S
(см)
06 15.08 З 2 3900 м мгла н/о +29.4 1000.9 894.9 +25.3
09 15.08 З 4 5000 м мгла н/о +34.8 +2.2 13 +32 +32 жарко 996.6 892.9
12 15.08 З 5 5000 м мгла н/о +36.3 -0.4 10 +33 +33 жарко 993.9 890.9
15 15.08 З 3 4800 м мгла н/о +32.2 +1.3 14 +29 +29 жарко 995.6 891.1
18 15.08 ЮЗ 3 7000 м мгла н/о +30.6 -3.4 11 +27 +27 жарко 997.6 892.4 +36.8
21 15.08 В 1 7000 м мгла н/о +26.2 -0.8 17 +24 +24 комфорт 999.0 892.1
00 16.08 Ю 1 10 км н/о +24.8 -4.6 14 +23 +23 комфорт 999.4 892.0
03 16.08 ЮЗ 2 17 км н/о +25.7 -7.1 11 +23 +23 комфорт 1000.0 892.8
06 16.08 З 2 26 км в посл. час дождь со снегом н/о +30.8 -5.9 9 +27 +27 жарко 998.1 892.9 +22.8
09 16.08 З 4 24 км н/о +35.5 -4.0 8 +31 +31 жарко 994.4 891.1
12 16.08 З 4 18 км н/о +35.8 -5.5 7 +32 +32 жарко 992.0 889.1
15 16.08 ЮЗ 2 9000 м мгла н/о +30.8 -3.2 11 +27 +27 жарко 994.0 889.2
18 16.08 Ю 1 15 км н/о +25.6 -6.0 12 +23 +23 комфорт 996.7 889.9 +36.6
21 16.08 Ю 2 13 км н/о +23.7 -12.7 8 +21 +21 комфорт 997.5 889.9
00 17.08 Ю 1 7000 м мгла н/о +21.7 -11.4 10 +20 +20 999.3 890.8
03 17.08 ЮЗ 1 7000 м мгла н/о +23.8 -9.8 10 +21 +21 комфорт 1000.1 892.3
06 17.08 СЗ 2 10 км н/о +27.7 -6.9 10 +24 +24 комфорт 999.4 893.0 +19.0
09 17.08 С 1 12 км мгла {дождь} н/о +33.2 -5.7 8 +29 +29 жарко 995.8 891.6
12 17.08 СЗ 1 16 км н/о +35.3 -7.8 6 +31 +31 жарко 993.4 890.2
15 17.08 ЮЗ 1 10 км мгла н/о +30.6 -11.2 6 +26 +26 жарко 995.6 890.6
18 17.08 ЮЗ 2 10 км мгла н/о +26.5 -12.3 7 +23 +23 комфорт 998.4 891.7 +36.0
21 17.08 В 1 11 км н/о +20.8 -8.7 13 +21 +21 комфорт 1000.8 891.8
00 18.08 В 1 12 км н/о +19.5 -7.9 15 +20 +20 1001.7 892.1
03 18.08 СВ 2 11 км н/о +21.1 -7.5 14 +20 +20 1002.8 893.7
06 18.08 С 1 10 км н/о +32.1 -12.1 5 +28 +28 жарко 999.2 894.3 +18.1
09 18.08 З 5 11 км н/о +35.6 -7.6 6 +31 +31 жарко 996.6 893.1
12 18.08 З 6 14 км н/о +35.8 -9.5 5 +31 +31 жарко 995.2 891.9
15 18.08 З 3 15 км н/о +30.8 -4.5 10 +27 +27 жарко 997.3 892.2
18 18.08 ЮВ 1 5000 м мгла н/о +24.9 -3.6 15 +23 +23 комфорт 1001.1 893.5 +36.3
21 18.08 штиль 0 27 км н/о +21.9 -6.9 14 +20 +20 1002.0 893.3
00 19.08 СВ 1 23 км н/о +19.6 -7.0 16 +20 +20 1003.2 893.5
03 19.08 СВ 1 23 км н/о +23.0 -6.0 14 +21 +21 комфорт 1003.7 895.2
06 19.08 З 3 24 км {дождь} н/о +30.5 -9.4 7 +26 +26 жарко 1002.0 896.3 +19.0
09 19.08 З 1 40 км н/о +35.4 -7.7 6 +31 +31 жарко 998.7 894.9
12 19.08 СЗ 1 35 км н/о +36.9 -8.8 5 +32 +32 жарко 995.9 892.9
15 19.08 З 2 12 км н/о +32.1 -5.0 9 +28 +28 жарко 998.3 893.5
18 19.08 ЮЗ 1 17 км н/о +27.8 -9.7 8 +24 +24 комфорт 1001.4 894.8 +37.6
21 19.08 В 2 17 км н/о +22.7 -7.2 13 +21 +21 комфорт 1002.8 894.3
00 20.08 СВ 1 22 км н/о +20.0 -5.8 17 +21 +21 комфорт 1004.3 894.6
03 20.08 В 2 19 км н/о +22.6 -5.4 15 +21 +21 комфорт 1004.8 896.0
06 20.08 Ю 2 35 км {морось} н/о +31.4 -8.7 7 +27 +27 жарко 1002.5 897.0 +18.8
09 20.08 З 3 25 км н/о +34.9 -6.2 7 +31 +31 жарко 999.5 895.5
12 20.08 З 4 40 км н/о +36.3 -11.5 4 +32 +32 жарко 996.8 893.5
15 20.08 З 2 9000 м мгла н/о +31.2 -4.2 10 +28 +28 жарко 998.9 893.7
18 20.08 ЮЗ 1 12 км н/о +26.6 -2.2 15 +24 +24 комфорт 1001.1 894.1 +37.1
21 20.08 ЮВ 1 28 км н/о +22.8 -4.4 16 +21 +21 комфорт 1001.8 893.4
00 21.08 ЮВ 1 35 км н/о +20.4 -6.3 16 +21 +21 комфорт 1002.9 893.5
03 21.08 В 1 25 км н/о +23.8 -5.4 14 +22 +22 комфорт 1002.4 894.3
06 21.08 ЮЗ 4 24 км н/о +31.5 -8.7 7 +27 +27 жарко 1000.2 895.0 +18.9
09 21.08 З 5 19 км н/о +35.6 -3.9 8 +32 +32 жарко 997.0 893.5
12 21.08 З 4 14 км н/о +36.6 -6.9 6 +32 +32 жарко 994.9 891.9
15 21.08 З 3 11 км н/о +31.3 -4.1 10 +28 +28 жарко 996.9 892.0
18 21.08 ЮЗ 2 15 км {дождь} н/о +27.2 -7.2 10 +24 +24 комфорт 999.5 892.9 +37.0
21 21.08 В 1 17 км н/о +22.5 -6.4 14 +21 +21 комфорт 1001.2 892.8
00 22.08 В 1 17 км н/о +21.4 -5.5 16 +20 +20 1002.2 893.3

 

Местоположение метеостанции Кандагар (Афганистан): широта 31.51 долгота 65.85 высота над уровнем моря 1010 м.

В архиве по умолчанию представлена погода в Кандагаре за последнюю неделю. Архивные данные за месяц целиком и за предыдущие месяцы, начиная с января 2011 года, Вы можете получить, выбрав интересующий диапазон дат из раскрывающегося списка и нажав кнопку "Ввод!".


*Определитесь, кто Вы:
робот инопланетянин человек

Внимание! Время в таблицах - всемирное. Для получения местного времени необходимо прибавить поправку, которая равна 4.5 ч.

Смотрите также архив погоды в соседних городах и на ближайших метеорологических станциях:

Погода в Лашкаргахе (Афганистан) (140 км)
Погода в Кветте (Пакистан) (171 км)
Погода в Кветта Шейх Манда (Пакистан) (172 км)
Погода в Чагчаране (Афганистан) (231 км)
Погода в Калате (Пакистан) (285 км)
Погода в Сиби (Пакистан) (292 км)
Погода в Дал Бандин (Пакистан) (324 км)
Погода в Зхобе (Пакистан) (344 км)
Погода в Бамиане (Афганистан) (411 км)
Погода в Бархане (Пакистан) (412 км)

Пояснения к столбцам:

Ветер - указаны скорость ветра в м/с - средняя за 10 мин, порывы в срок и между сроками (в фигурных скобках) и направление, откуда дует ветер: С - северный, СВ - северо-восточный, В - восточный, ЮВ - юго-восточный, Ю - южный, ЮЗ - юго-западный, З - западный, СЗ - северо-западный.
Видимость - горизонтальная дальность видимости в метрах или километрах. При видимости от 1 до 10 км при отсутствии осадков обычно наблюдается дымка, при ухудшении видимости до 1 км и менее - туман. В сухую погоду видимость может ухудшаться дымом, пылью или мглою.
Явления - указаны атмосферные явления, наблюдавшиеся в срок или в последний час перед сроком; фигурными скобками обозначены явления, наблюдавшиеся между сроками (за 1-3 часа до срока); квадратными скобками обозначены град или гололедные отложения с указанием их диаметра в мм.
Облачность - указаны через наклонную черту общая и нижняя облачность в баллах и высота нижней границы облаков в метрах; квадратными скобками обозначены формы облаков: Ci - перистые, Cs - перисто-слоистые, Cc - перисто-кучевые, Ac - высококучевые, As - высокослоистые, Sc - слоисто-кучевые, Ns - слоисто-дождевые, Cu - кучевые, Cb - кучево-дождевые. Подробнее классификацию облаков см. в Атласе облаков (PDF).
T - Температура воздуха - температура, измеренная на высоте 2 м над землей.
Td - Температура точки росы - температура, при понижении до которой содержащийся в воздухе водяной пар достигнет насыщения.
f - Относительная влажность воздуха - влажноcть воздуха, измеренная на высоте 2 м над землей.
Te - Эффективная температура - температура, которую ощущает одетый по сезону человек в тени. Характеристика душности погоды. При расчете учитывается влияние влажности воздуха и скорости ветра на теплоощущения человека.
Tes - Эффективная температура на солнце - температура, которую ощущает человек, с поправкой на солнечный нагрев. Характеристика знойности погоды. Зависит от высоты солнца над горизонтом, облачности и скорости ветра. Ночью, в пасмурную погоду, а также при ветре 12 м/с и более поправка равна нулю.
P - Атмосферное давление - приведенное к уровню моря атмосферное давление.
Po - Атмосферное давление - измеренное на уровне метеостанции атмосферное давление.
Tmin - Минимальная температура - минимум температуры воздуха на высоте 2 м над землей.
Tmax - Максимальная температура - максимум температуры воздуха на высоте 2 м над землей.
R - Количество осадков - Количество выпавших осадков за период времени, мм. При наведении курсора мыши на число - период времени, за который выпало указанное количество осадков.
R24 - Количество осадков - Количество выпавших осадков за 24 часа, мм.
S - Снежный покров - Высота снежного покрова, см. При наведении курсора мыши на число - состояние снежного покрова и степень покрытия местности в баллах.